Time,TemperatureF,DewpointF,PressureIn,WindDirection,WindDirectionDegrees,WindSpeedMPH,WindSpeedGustMPH,Humidity,HourlyPrecipIn,Conditions,Clouds,dailyrainin,SoftwareType,DateUTC
2013-04-30 00:03:00,52.1,49.0,30.22,SE,135,0.0,1.0,88,0.00,,,0.00,weatherlink.com 1.10,2013-04-30 04:03:00,
2013-04-30 00:18:00,52.0,49.0,30.22,NW,304,0.0,2.0,88,0.00,,,0.00,weatherlink.com 1.10,2013-04-30 04:18:00,
2013-04-30 00:33:00,51.8,49.0,30.22,ESE,114,1.0,2.0,89,0.00,,,0.00,weatherlink.com 1.10,2013-04-30 04:33:00,
2013-04-30 00:48:00,51.2,49.0,30.22,SE,144,0.0,1.0,91,0.00,,,0.00,weatherlink.com 1.10,2013-04-30 04:48:00,
2013-04-30 01:03:00,51.0,49.0,30.22,SE,129,0.0,0.0,91,0.00,,,0.00,weatherlink.com 1.10,2013-04-30 05:03:00,
2013-04-30 01:18:00,51.0,49.0,30.22,SE,124,0.0,0.0,91,0.00,,,0.00,weatherlink.com 1.10,2013-04-30 05:18:00,
2013-04-30 01:34:00,50.9,48.0,30.21,SE,146,0.0,2.0,90,0.00,,,0.00,weatherlink.com 1.10,2013-04-30 05:34:00,
2013-04-30 01:49:00,50.8,48.0,30.21,SSE,150,0.0,1.0,90,0.00,,,0.00,weatherlink.com 1.10,2013-04-30 05:49:00,
2013-04-30 02:04:00,50.8,48.0,30.21,SSE,150,0.0,0.0,91,0.00,,,0.00,weatherlink.com 1.10,2013-04-30 06:04:00,
2013-04-30 02:19:00,50.8,48.0,30.21,ENE,75,0.0,2.0,91,0.00,,,0.00,weatherlink.com 1.10,2013-04-30 06:19:00,
2013-04-30 02:34:00,50.6,49.0,30.21,ENE,77,0.0,1.0,93,0.01,,,0.01,weatherlink.com 1.10,2013-04-30 06:34:00,
2013-04-30 02:49:00,50.4,49.0,30.21,SE,132,0.0,0.0,94,0.01,,,0.01,weatherlink.com 1.10,2013-04-30 06:49:00,
2013-04-30 03:04:00,50.3,49.0,30.21,East,89,0.0,0.0,94,0.01,,,0.01,weatherlink.com 1.10,2013-04-30 07:04:00,
2013-04-30 03:19:00,50.2,49.0,30.21,East,89,0.0,0.0,94,0.01,,,0.01,weatherlink.com 1.10,2013-04-30 07:19:00,
2013-04-30 03:34:00,50.2,49.0,30.22,East,89,0.0,0.0,95,0.00,,,0.01,weatherlink.com 1.10,2013-04-30 07:34:00,
2013-04-30 03:49:00,50.3,49.0,30.22,East,89,0.0,0.0,95,0.00,,,0.01,weatherlink.com 1.10,2013-04-30 07:49:00,
2013-04-30 04:04:00,50.4,49.0,30.22,East,89,0.0,0.0,95,0.00,,,0.01,weatherlink.com 1.10,2013-04-30 08:04:00,
2013-04-30 04:19:00,50.4,49.0,30.23,East,89,0.0,0.0,95,0.00,,,0.01,weatherlink.com 1.10,2013-04-30 08:19:00,
2013-04-30 04:34:00,50.5,49.0,30.22,East,89,0.0,0.0,95,0.00,,,0.01,weatherlink.com 1.10,2013-04-30 08:34:00,
2013-04-30 04:49:00,50.6,49.0,30.22,East,89,0.0,0.0,95,0.00,,,0.01,weatherlink.com 1.10,2013-04-30 08:49:00,
2013-04-30 05:04:00,50.7,49.0,30.22,ENE,75,0.0,0.0,94,0.00,,,0.01,weatherlink.com 1.10,2013-04-30 09:04:00,
2013-04-30 05:19:00,50.7,49.0,30.23,East,98,0.0,0.0,94,0.00,,,0.01,weatherlink.com 1.10,2013-04-30 09:19:00,
2013-04-30 05:34:00,50.7,49.0,30.23,East,98,0.0,0.0,94,0.00,,,0.01,weatherlink.com 1.10,2013-04-30 09:34:00,
2013-04-30 05:49:00,50.8,50.0,30.23,East,98,0.0,0.0,95,0.00,,,0.01,weatherlink.com 1.10,2013-04-30 09:49:00,
2013-04-30 06:04:00,50.7,49.0,30.24,SE,129,0.0,0.0,95,0.00,,,0.01,weatherlink.com 1.10,2013-04-30 10:04:00,
2013-04-30 06:19:00,50.8,49.0,30.24,ENE,72,0.0,0.0,94,0.00,,,0.01,weatherlink.com 1.10,2013-04-30 10:19:00,
2013-04-30 06:34:00,50.9,49.0,30.25,ENE,72,0.0,1.0,94,0.00,,,0.01,weatherlink.com 1.10,2013-04-30 10:34:00,
2013-04-30 06:49:00,51.0,49.0,30.25,East,94,0.0,1.0,93,0.00,,,0.01,weatherlink.com 1.10,2013-04-30 10:49:00,
2013-04-30 07:04:00,51.3,49.0,30.26,East,84,0.0,0.0,92,0.00,,,0.01,weatherlink.com 1.10,2013-04-30 11:04:00,
2013-04-30 07:19:00,51.6,49.0,30.26,SE,139,0.0,0.0,91,0.00,,,0.01,weatherlink.com 1.10,2013-04-30 11:19:00,
2013-04-30 07:34:00,51.9,49.0,30.27,ESE,121,0.0,2.0,88,0.00,,,0.01,weatherlink.com 1.10,2013-04-30 11:34:00,
2013-04-30 07:49:00,52.3,49.0,30.27,ENE,66,0.0,3.0,87,0.00,,,0.01,weatherlink.com 1.10,2013-04-30 11:49:00,
2013-04-30 08:04:00,52.6,48.0,30.28,East,88,1.0,4.0,84,0.00,,,0.01,weatherlink.com 1.10,2013-04-30 12:04:00,
2013-04-30 08:19:00,53.2,48.0,30.28,East,91,1.0,2.0,83,0.00,,,0.01,weatherlink.com 1.10,2013-04-30 12:19:00,
2013-04-30 08:34:00,53.9,48.0,30.29,East,94,0.0,2.0,80,0.00,,,0.01,weatherlink.com 1.10,2013-04-30 12:34:00,
2013-04-30 08:49:00,54.4,48.0,30.29,ESE,121,0.0,4.0,78,0.00,,,0.01,weatherlink.com 1.10,2013-04-30 12:49:00,
2013-04-30 09:04:00,54.7,48.0,30.29,East,98,0.0,3.0,78,0.00,,,0.01,weatherlink.com 1.10,2013-04-30 13:04:00,
2013-04-30 09:19:00,55.1,47.0,30.29,East,79,1.0,3.0,75,0.00,,,0.01,weatherlink.com 1.10,2013-04-30 13:19:00,
2013-04-30 09:34:00,55.2,47.0,30.29,ENE,65,0.0,2.0,73,0.00,,,0.01,weatherlink.com 1.10,2013-04-30 13:34:00,
2013-04-30 09:49:00,55.5,47.0,30.30,East,92,0.0,3.0,72,0.00,,,0.01,weatherlink.com 1.10,2013-04-30 13:49:00,
2013-04-30 10:04:00,56.2,47.0,30.30,NE,39,2.0,3.0,71,0.00,,,0.01,weatherlink.com 1.10,2013-04-30 14:04:00,
2013-04-30 10:20:00,57.0,47.0,30.30,East,86,0.0,2.0,69,0.00,,,0.01,weatherlink.com 1.10,2013-04-30 14:20:00,
2013-04-30 10:35:00,58.0,47.0,30.30,ENE,73,0.0,4.0,67,0.00,,,0.01,weatherlink.com 1.10,2013-04-30 14:35:00,
2013-04-30 10:50:00,59.0,47.0,30.30,NE,53,1.0,5.0,65,0.00,,,0.01,weatherlink.com 1.10,2013-04-30 14:50:00,
2013-04-30 11:05:00,59.7,46.0,30.30,SE,146,1.0,3.0,60,0.00,,,0.01,weatherlink.com 1.10,2013-04-30 15:05:00,
2013-04-30 11:20:00,60.5,46.0,30.30,ESE,120,0.0,5.0,59,0.00,,,0.01,weatherlink.com 1.10,2013-04-30 15:20:00,
2013-04-30 11:35:00,61.4,46.0,30.29,North,349,0.0,5.0,57,0.00,,,0.01,weatherlink.com 1.10,2013-04-30 15:35:00,
2013-04-30 11:50:00,62.2,44.0,30.29,SW,214,0.0,6.0,52,0.00,,,0.01,weatherlink.com 1.10,2013-04-30 15:50:00,
2013-04-30 12:05:00,62.6,43.0,30.29,South,191,1.0,6.0,49,0.00,,,0.01,weatherlink.com 1.10,2013-04-30 16:05:00,
2013-04-30 12:20:00,63.5,42.0,30.28,West,266,0.0,4.0,46,0.00,,,0.01,weatherlink.com 1.10,2013-04-30 16:20:00,
2013-04-30 12:35:00,64.0,41.0,30.28,South,174,2.0,5.0,43,0.00,,,0.01,weatherlink.com 1.10,2013-04-30 16:35:00,
2013-04-30 12:50:00,63.6,42.0,30.28,SW,218,2.0,6.0,46,0.00,,,0.01,weatherlink.com 1.10,2013-04-30 16:50:00,
2013-04-30 13:05:00,63.8,43.0,30.28,SSW,198,2.0,6.0,47,0.00,,,0.01,weatherlink.com 1.10,2013-04-30 17:05:00,
2013-04-30 13:20:00,64.4,38.0,30.28,SSW,198,1.0,7.0,38,0.00,,,0.01,weatherlink.com 1.10,2013-04-30 17:20:00,
2013-04-30 13:35:00,64.7,38.0,30.28,SW,216,3.0,8.0,37,0.00,,,0.01,weatherlink.com 1.10,2013-04-30 17:35:00,
2013-04-30 13:50:00,65.3,40.0,30.29,SSW,211,1.0,4.0,39,0.00,,,0.01,weatherlink.com 1.10,2013-04-30 17:50:00,
2013-04-30 14:05:00,64.8,35.0,30.29,SW,224,4.0,7.0,33,0.00,,,0.01,weatherlink.com 1.10,2013-04-30 18:05:00,
2013-04-30 14:20:00,64.6,33.0,30.29,East,95,1.0,6.0,31,0.00,,,0.01,weatherlink.com 1.10,2013-04-30 18:20:00,
2013-04-30 14:35:00,64.6,31.0,30.29,West,280,1.0,6.0,28,0.00,,,0.01,weatherlink.com 1.10,2013-04-30 18:35:00,
2013-04-30 14:50:00,64.5,32.0,30.29,SE,141,1.0,6.0,30,0.00,,,0.01,weatherlink.com 1.10,2013-04-30 18:50:00,
2013-04-30 15:05:00,65.7,30.0,30.29,SSW,208,3.0,7.0,26,0.00,,,0.01,weatherlink.com 1.10,2013-04-30 19:05:00,
2013-04-30 15:20:00,65.3,30.0,30.29,NNE,12,2.0,6.0,27,0.00,,,0.01,weatherlink.com 1.10,2013-04-30 19:20:00,
2013-04-30 15:35:00,65.2,28.0,30.29,SW,219,4.0,6.0,25,0.00,,,0.01,weatherlink.com 1.10,2013-04-30 19:35:00,
2013-04-30 15:50:00,65.7,30.0,30.29,NNW,327,2.0,9.0,26,0.00,,,0.01,weatherlink.com 1.10,2013-04-30 19:50:00,
2013-04-30 16:05:00,63.9,27.0,30.29,NNE,20,1.0,5.0,25,0.00,,,0.01,weatherlink.com 1.10,2013-04-30 20:05:00,
2013-04-30 16:20:00,64.5,28.0,30.30,SSW,207,1.0,4.0,25,0.00,,,0.01,weatherlink.com 1.10,2013-04-30 20:20:00,
2013-04-30 16:35:00,64.4,28.0,30.30,WNW,295,2.0,7.0,25,0.00,,,0.01,weatherlink.com 1.10,2013-04-30 20:35:00,
2013-04-30 16:50:00,64.5,29.0,30.30,SSW,211,2.0,5.0,26,0.00,,,0.01,weatherlink.com 1.10,2013-04-30 20:50:00,
2013-04-30 17:05:00,62.5,26.0,30.31,East,84,3.0,8.0,25,0.00,,,0.01,weatherlink.com 1.10,2013-04-30 21:05:00,
2013-04-30 17:20:00,61.7,27.0,30.31,West,280,1.0,4.0,27,0.00,,,0.01,weatherlink.com 1.10,2013-04-30 21:20:00,
2013-04-30 17:35:00,61.2,28.0,30.31,South,191,0.0,3.0,28,0.00,,,0.01,weatherlink.com 1.10,2013-04-30 21:35:00,
2013-04-30 17:50:00,61.0,29.0,30.32,SW,233,2.0,4.0,30,0.00,,,0.01,weatherlink.com 1.10,2013-04-30 21:50:00,
2013-04-30 18:05:00,61.6,29.0,30.31,NNW,339,1.0,4.0,29,0.00,,,0.01,weatherlink.com 1.10,2013-04-30 22:05:00,
2013-04-30 18:20:00,60.8,28.0,30.31,SW,226,2.0,5.0,29,0.00,,,0.01,weatherlink.com 1.10,2013-04-30 22:20:00,
2013-04-30 18:35:00,60.5,29.0,30.32,NW,305,1.0,3.0,30,0.00,,,0.01,weatherlink.com 1.10,2013-04-30 22:35:00,
2013-04-30 18:51:00,59.5,24.0,30.32,SE,131,1.0,7.0,26,0.00,,,0.01,weatherlink.com 1.10,2013-04-30 22:51:00,
2013-04-30 19:06:00,58.8,24.0,30.32,SSW,204,0.0,5.0,26,0.00,,,0.01,weatherlink.com 1.10,2013-04-30 23:06:00,
2013-04-30 19:21:00,58.2,26.0,30.32,WSW,250,1.0,4.0,29,0.00,,,0.01,weatherlink.com 1.10,2013-04-30 23:21:00,
2013-04-30 19:36:00,57.5,26.0,30.32,SSE,148,0.0,4.0,30,0.00,,,0.01,weatherlink.com 1.10,2013-04-30 23:36:00,
2013-04-30 19:51:00,56.8,27.0,30.32,WSW,245,0.0,2.0,32,0.00,,,0.01,weatherlink.com 1.10,2013-04-30 23:51:00,
2013-04-30 20:06:00,56.1,28.0,30.32,West,274,0.0,0.0,34,0.00,,,0.01,weatherlink.com 1.10,2013-05-01 00:06:00,
2013-04-30 20:21:00,55.3,29.0,30.33,WSW,253,0.0,0.0,36,0.00,,,0.01,weatherlink.com 1.10,2013-05-01 00:21:00,
2013-04-30 20:36:00,54.4,30.0,30.33,WSW,255,0.0,0.0,39,0.00,,,0.01,weatherlink.com 1.10,2013-05-01 00:36:00,
2013-04-30 21:06:00,52.1,32.0,30.33,WSW,255,0.0,0.0,46,0.00,,,0.01,weatherlink.com 1.10,2013-05-01 01:06:00,
2013-04-30 21:21:00,50.9,32.0,30.34,WSW,255,0.0,0.0,49,0.00,,,0.01,weatherlink.com 1.10,2013-05-01 01:21:00,
2013-04-30 21:36:00,49.7,32.0,30.34,WSW,255,0.0,0.0,51,0.00,,,0.01,weatherlink.com 1.10,2013-05-01 01:36:00,
2013-04-30 21:51:00,49.1,33.0,30.34,WSW,254,0.0,0.0,54,0.00,,,0.01,weatherlink.com 1.10,2013-05-01 01:51:00,
2013-04-30 22:06:00,48.5,34.0,30.33,WSW,255,0.0,0.0,58,0.00,,,0.01,weatherlink.com 1.10,2013-05-01 02:06:00,
2013-04-30 22:21:00,47.7,33.0,30.33,WSW,255,0.0,0.0,58,0.00,,,0.01,weatherlink.com 1.10,2013-05-01 02:21:00,
2013-04-30 22:36:00,46.8,34.0,30.33,WSW,255,0.0,0.0,61,0.00,,,0.01,weatherlink.com 1.10,2013-05-01 02:36:00,
2013-04-30 22:51:00,46.4,34.0,30.33,WSW,255,0.0,0.0,63,0.00,,,0.01,weatherlink.com 1.10,2013-05-01 02:51:00,
2013-04-30 23:06:00,46.0,35.0,30.33,WSW,255,0.0,0.0,65,0.00,,,0.01,weatherlink.com 1.10,2013-05-01 03:06:00,
2013-04-30 23:21:00,45.5,35.0,30.33,WSW,255,0.0,0.0,67,0.00,,,0.01,weatherlink.com 1.10,2013-05-01 03:21:00,
2013-04-30 23:36:00,45.0,35.0,30.33,WSW,255,0.0,0.0,68,0.00,,,0.01,weatherlink.com 1.10,2013-05-01 03:36:00,
2013-04-30 23:51:00,44.8,35.0,30.33,WSW,255,0.0,0.0,69,0.00,,,0.01,weatherlink.com 1.10,2013-05-01 03:51:00,